Location: Unspecified
(47.9110°N, 14.3980°E)
Time: 21:43:55
(UTC+00:00)

BREEZE-M DEB (TANK) - Pass Details

Date: 06 August 2020
Orbit: 280 x 20489 km, 49.2° (Epoch: 22 September)

Event Time Altitude Azimuth Distance (km) Brightness Sun altitude
Rises 19:53:11 0° 268° (W) 3,485 7.6 -12.4°
Reaches altitude 10° 19:56:33 10° 271° (W) 1,700 6.0 -12.8°
Maximum altitude 19:59:31 63° 355° (N) 354 2.0 -13.2°
Enters shadow 20:00:47 19° 74° (ENE) 774 3.3 -13.3°
